Weather History for KUIL - May, 2013

Change the Weather History Date:

Wednesday, May 29, 2013

  Actual Average Record
Temperature  
Mean Temperature 54 °F 53 °F  
Max Temperature 58 °F 61 °F 78 °F (2007)
Min Temperature 49 °F 45 °F 34 °F (1999)
Degree Days  
Heating Degree Days 11 12  
Month to date heating degree days 293 402  
Since 1 July heating degree days 5049 5444  
Cooling Degree Days 0 0  
Month to date cooling degree days 3 0  
Year to date cooling degree days 3 0  
Growing Degree Days 4 (Base 50)    
Moisture  
Dew Point 48 °F    
Average Humidity 78    
Maximum Humidity 89    
Minimum Humidity 67    
Precipitation  
Precipitation 0.27 in 0.15 in 1.66 in (1969)
Month to date precipitation 6.49 4.80  
Year to date precipitation 55.52 48.44  
Sea Level Pressure  
Sea Level Pressure 29.86 in    
Wind  
Wind Speed 3 mph (WSW)    
Max Wind Speed 14 mph    
Max Gust Speed 17 mph    
Visibility 6 miles    
Events Rain    
T = Trace of Precipitation, MM = Missing Value Source: NWS Daily Summary

Daily Weather History Graph

Daily Weather History Graph

Search for Another Location

Airport or City:

Trip Planner

Search our weather history database for the weather conditions in past years. The results will help you decide how hot, cold, wet, or windy it might be!

Date:

Astronomy

May. 29, 2013 Rise Set
Actual Time 5:25 AM PDT 9:06 PM PDT
Civil Twilight 4:45 AM PDT 9:46 PM PDT
Nautical Twilight 3:52 AM PDT 10:39 PM PDT
Astronomical Twilight 2:37 AM PDT 11:56 PM PDT
Moon 12:22 AM PDT (5/29) 10:44 AM PDT (5/29)
Length of Visible Light 17h 00m
Length of Day
15h 41m
Waning Gibbous, 72% of the Moon is Illuminated
May 29
Waning Gibbous
May 31
Last Quarter
Jun 8
New
Jun 16
First Quarter
Jun 23
Full

Hourly Weather History & Observations

Time (PDT) Temp. Dew Point Humidity Pressure Visibility Wind Dir Wind Speed Gust Speed Precip Events Conditions
12:53 AM 50.0 °F 46.9 °F 89% 29.74 in 9.0 mi Calm Calm - 0.00 in   Overcast
1:53 AM 50.0 °F 46.9 °F 89% 29.73 in 9.0 mi Calm Calm - N/A   Overcast
2:53 AM 50.0 °F 46.9 °F 89% 29.72 in 6.0 mi Calm Calm - 0.01 in Rain Light Rain
3:53 AM 50.0 °F 46.9 °F 89% 29.72 in 6.0 mi Calm Calm - 0.03 in Rain Light Rain
4:53 AM 50.0 °F 46.9 °F 89% 29.71 in 7.0 mi Calm Calm - 0.01 in Rain Light Rain
5:53 AM 50.0 °F 46.0 °F 86% 29.71 in 5.0 mi Calm Calm - 0.02 in Rain Light Rain
6:53 AM 50.0 °F 46.9 °F 89% 29.72 in 6.0 mi Calm Calm - 0.00 in   Overcast
7:53 AM 52.0 °F 46.9 °F 83% 29.73 in 6.0 mi NNE 3.5 mph - 0.01 in   Haze
8:00 AM 51.8 °F 48.2 °F 88% 29.73 in 6.0 mi Calm Calm - N/A   Overcast
8:53 AM 53.1 °F 48.0 °F 83% 29.75 in 5.0 mi Calm Calm - 0.00 in Rain Light Rain
9:39 AM 53.6 °F 48.2 °F 82% 29.76 in 5.0 mi Calm Calm - 0.00 in Rain Light Rain
9:53 AM 54.0 °F 48.9 °F 83% 29.76 in 5.0 mi Variable 3.5 mph - 0.00 in Rain Light Rain
9:55 AM 53.6 °F 48.2 °F 82% 29.76 in 5.0 mi WSW 5.8 mph - 0.00 in Rain Light Rain
10:14 AM 53.6 °F 48.2 °F 82% 29.76 in 7.0 mi West 9.2 mph - 0.00 in   Overcast
10:37 AM 53.6 °F 48.2 °F 82% 29.77 in 7.0 mi WSW 3.5 mph - 0.00 in   Overcast
10:45 AM 53.6 °F 48.2 °F 82% 29.77 in 7.0 mi WSW 4.6 mph - 0.00 in   Overcast
10:53 AM 55.0 °F 48.9 °F 80% 29.77 in 7.0 mi Calm Calm - 0.00 in   Overcast
11:07 AM 55.4 °F 48.2 °F 77% 29.78 in 7.0 mi WSW 5.8 mph - N/A   Overcast
11:33 AM 53.6 °F 48.2 °F 82% 29.79 in 6.0 mi NW 4.6 mph - 0.00 in Rain Light Rain
11:53 AM 55.0 °F 48.9 °F 80% 29.80 in 9.0 mi West 3.5 mph - 0.00 in   Overcast
12:08 PM 55.4 °F 48.2 °F 77% 29.80 in 6.0 mi WSW 9.2 mph - N/A   Haze
12:29 PM 57.2 °F 48.2 °F 72% 29.81 in 9.0 mi WSW 10.4 mph - N/A   Overcast
12:51 PM 55.4 °F 48.2 °F 77% 29.83 in 9.0 mi WSW 11.5 mph - N/A   Overcast
12:53 PM 55.0 °F 48.0 °F 77% 29.83 in 9.0 mi West 10.4 mph - N/A   Overcast
1:05 PM 55.4 °F 48.2 °F 77% 29.83 in 9.0 mi WSW 9.2 mph - N/A   Overcast
1:14 PM 53.6 °F 48.2 °F 82% 29.83 in 8.0 mi WSW 9.2 mph - N/A   Overcast
1:49 PM 55.4 °F 48.2 °F 77% 29.85 in 9.0 mi SW 9.2 mph - N/A   Overcast
1:53 PM 55.0 °F 48.0 °F 77% 29.85 in 9.0 mi WSW 6.9 mph - N/A   Overcast
2:08 PM 55.4 °F 48.2 °F 77% 29.85 in 9.0 mi SW 11.5 mph - N/A   Overcast
2:15 PM 55.4 °F 48.2 °F 77% 29.86 in 5.0 mi WSW 9.2 mph - N/A   Haze
2:28 PM 55.4 °F 48.2 °F 77% 29.86 in 9.0 mi SW 5.8 mph - N/A   Overcast
2:53 PM 55.9 °F 46.9 °F 72% 29.87 in 9.0 mi WSW 8.1 mph - N/A   Overcast
3:38 PM 57.2 °F 46.4 °F 67% 29.88 in 9.0 mi SW 11.5 mph - N/A   Overcast
3:53 PM 57.0 °F 46.9 °F 69% 29.89 in 9.0 mi SW 12.7 mph - N/A   Overcast
4:44 PM 55.4 °F 48.2 °F 77% 29.90 in 8.0 mi WSW 9.2 mph - 0.00 in   Overcast
4:53 PM 55.9 °F 48.0 °F 75% 29.90 in 8.0 mi Variable 6.9 mph - 0.00 in   Overcast
5:19 PM 57.2 °F 48.2 °F 72% 29.90 in 8.0 mi SW 9.2 mph - N/A   Overcast
5:53 PM 55.9 °F 46.9 °F 72% 29.91 in 8.0 mi SSW 6.9 mph - N/A   Overcast
6:33 PM 53.6 °F 48.2 °F 82% 29.90 in 1.8 mi SSW 6.9 mph - 0.00 in Rain Light Rain
6:40 PM 53.6 °F 48.2 °F 82% 29.90 in 2.0 mi SSW 4.6 mph - 0.01 in Rain Light Rain
6:45 PM 53.6 °F 48.2 °F 82% 29.91 in 4.0 mi SSW 3.5 mph - 0.01 in Rain Light Rain
6:53 PM 54.0 °F 50.0 °F 86% 29.91 in 3.0 mi Calm Calm - 0.01 in Rain Light Rain
6:58 PM 53.6 °F 50.0 °F 88% 29.91 in 2.0 mi SSW 4.6 mph - 0.01 in Rain Rain
7:13 PM 53.6 °F 48.2 °F 82% 29.91 in 3.0 mi SW 5.8 mph - 0.03 in Rain Light Rain
7:19 PM 53.6 °F 48.2 °F 82% 29.91 in 2.0 mi SSW 4.6 mph - 0.03 in Rain Light Rain
7:22 PM 53.6 °F 48.2 °F 82% 29.92 in 1.2 mi SW 6.9 mph - 0.04 in Rain Rain
7:29 PM 53.6 °F 48.2 °F 82% 29.92 in 1.2 mi SSW 4.6 mph - 0.05 in Rain Light Rain
7:36 PM 53.6 °F 48.2 °F 82% 29.92 in 0.8 mi WSW 8.1 mph - 0.06 in Rain Rain
7:53 PM 52.0 °F 48.9 °F 89% 29.92 in 1.0 mi SW 5.8 mph - 0.12 in Rain Rain
8:04 PM 51.8 °F 48.2 °F 88% 29.92 in 2.0 mi WSW 6.9 mph - 0.01 in Rain Light Rain
8:21 PM 51.8 °F 48.2 °F 88% 29.92 in 1.8 mi WSW 5.8 mph - 0.02 in Rain Light Rain
8:27 PM 51.8 °F 48.2 °F 88% 29.93 in 3.0 mi WSW 5.8 mph - 0.02 in Rain Light Rain
8:46 PM 51.8 °F 48.2 °F 88% 29.93 in 4.0 mi West 5.8 mph - 0.02 in   Overcast
8:53 PM 52.0 °F 48.0 °F 86% 29.93 in 4.0 mi West 4.6 mph - 0.02 in   Overcast
9:01 PM 51.8 °F 48.2 °F 88% 29.93 in 2.5 mi West 4.6 mph - 0.00 in Rain Light Rain
9:08 PM 51.8 °F 48.2 °F 88% 29.93 in 2.0 mi West 3.5 mph - 0.01 in Rain Light Rain
9:13 PM 51.8 °F 48.2 °F 88% 29.94 in 3.0 mi West 5.8 mph - 0.01 in Rain Light Rain
9:21 PM 51.8 °F 48.2 °F 88% 29.94 in 2.5 mi West 4.6 mph - 0.02 in Rain Light Rain
9:31 PM 51.8 °F 48.2 °F 88% 29.94 in 3.0 mi West 3.5 mph - 0.03 in Rain Light Rain
9:40 PM 51.8 °F 48.2 °F 88% 29.95 in 6.0 mi Calm Calm - 0.03 in Rain Light Rain
9:43 PM 51.8 °F 48.2 °F 88% 29.95 in 5.0 mi SSW 3.5 mph - 0.03 in Rain Light Rain
9:53 PM 52.0 °F 48.0 °F 86% 29.95 in 4.0 mi SW 4.6 mph - 0.04 in Rain Light Rain
10:13 PM 51.8 °F 46.4 °F 82% 29.96 in 9.0 mi West 5.8 mph - 0.00 in   Overcast
10:23 PM 51.8 °F 46.4 °F 82% 29.96 in 9.0 mi West 5.8 mph - 0.00 in   Overcast
10:34 PM 51.8 °F 46.4 °F 82% 29.97 in 8.0 mi West 5.8 mph - 0.00 in   Mostly Cloudy
10:53 PM 51.1 °F 46.0 °F 83% 29.98 in 8.0 mi WSW 3.5 mph - 0.00 in   Scattered Clouds
11:53 PM 50.0 °F 46.0 °F 86% 29.99 in 7.0 mi Calm Calm - N/A   Overcast